ProjectID,Date,Electric Generation,Electric Utility Import,Facility Electric Load
,YYYY-MM-DD,kW,kW,kW
135,2013-09-11,44.875,,44.875
135,2013-09-12,21.208333333333332,,21.208333333333332
135,2013-09-13,18.333333333333332,,18.333333333333332
135,2013-09-14,74.0,,74.0
135,2013-09-15,40.166666666666664,,40.166666666666664
135,2013-09-16,16.708333333333332,,16.708333333333332
135,2013-09-17,71.29166666666667,,71.29166666666667
135,2013-09-18,72.375,,72.375
135,2013-09-19,66.75,,66.75
135,2013-09-20,52.0,,52.0
135,2013-09-21,8.875,,8.875
135,2013-09-22,43.583333333333336,,43.583333333333336
135,2013-09-23,67.79166666666667,,67.79166666666667
135,2013-09-24,69.08333333333333,,69.08333333333333
135,2013-09-25,63.958333333333336,,63.958333333333336
135,2013-09-26,60.375,,60.375
135,2013-09-27,62.416666666666664,,62.416666666666664
135,2013-09-28,65.25,,65.25
135,2013-09-29,56.791666666666664,,56.791666666666664
135,2013-09-30,35.791666666666664,,35.791666666666664
135,2013-10-01,53.416666666666664,,53.416666666666664
135,2013-10-02,46.333333333333336,,46.333333333333336
135,2013-10-03,39.25,,39.25
135,2013-10-04,17.25,,17.25
135,2013-10-05,17.5,,17.5
135,2013-10-06,31.083333333333332,,31.083333333333332
135,2013-10-07,21.625,,21.625
135,2013-10-08,52.666666666666664,,52.666666666666664
135,2013-10-09,62.125,,62.125
135,2013-10-10,57.333333333333336,,57.333333333333336
135,2013-10-11,56.875,,56.875
135,2013-10-12,58.083333333333336,,58.083333333333336
135,2013-10-13,15.625,,15.625
135,2013-10-14,52.208333333333336,,52.208333333333336
135,2013-10-15,36.916666666666664,,36.916666666666664
135,2013-10-16,21.875,,21.875
135,2013-10-17,30.25,,30.25
135,2013-10-18,55.125,,55.125
135,2013-10-19,12.583333333333334,,12.583333333333334
135,2013-10-20,33.958333333333336,,33.958333333333336
135,2013-10-21,38.458333333333336,,38.458333333333336
135,2013-10-22,58.041666666666664,,58.041666666666664
135,2013-10-23,20.708333333333332,,20.708333333333332
135,2013-10-24,37.666666666666664,,37.666666666666664
135,2013-10-25,35.541666666666664,,35.541666666666664
135,2013-10-26,3.5416666666666665,,3.5416666666666665
135,2013-10-27,24.708333333333332,,24.708333333333332
135,2013-10-28,41.458333333333336,,41.458333333333336
135,2013-10-29,46.458333333333336,,46.458333333333336
135,2013-10-30,41.458333333333336,,41.458333333333336
135,2013-10-31,11.791666666666666,,11.791666666666666
135,2013-11-01,11.166666666666666,,11.166666666666666
135,2013-11-02,11.833333333333334,,11.833333333333334
135,2013-11-03,42.083333333333336,,42.083333333333336
135,2013-11-04,37.708333333333336,,37.708333333333336
135,2013-11-05,36.125,,36.125
135,2013-11-06,15.333333333333334,,15.333333333333334
135,2013-11-07,18.125,,18.125
135,2013-11-08,23.416666666666668,,23.416666666666668
135,2013-11-09,18.75,,18.75
135,2013-11-10,14.833333333333334,,14.833333333333334
135,2013-11-11,3.8333333333333335,,3.8333333333333335
135,2013-11-12,17.375,,17.375
135,2013-11-13,45.666666666666664,,45.666666666666664
135,2013-11-14,38.125,,38.125
135,2013-11-15,35.958333333333336,,35.958333333333336
135,2013-11-16,37.833333333333336,,37.833333333333336
135,2013-11-17,9.375,,9.375
135,2013-11-18,10.416666666666666,,10.416666666666666
135,2013-11-19,18.083333333333332,,18.083333333333332
135,2013-11-20,40.5,,40.5
135,2013-11-21,9.541666666666666,,9.541666666666666
135,2013-11-22,1.5833333333333333,,1.5833333333333333
135,2013-11-23,17.208333333333332,,17.208333333333332
135,2013-11-24,25.75,,25.75
135,2013-11-25,20.166666666666668,,20.166666666666668
135,2013-11-26,2.0416666666666665,,2.0416666666666665
135,2013-11-27,0.0,,0.0
135,2013-11-28,0.041666666666666664,,0.041666666666666664
135,2013-11-29,0.0,,0.0
135,2013-11-30,0.0,,0.0
135,2013-12-01,0.0,,0.0
135,2013-12-02,0.041666666666666664,,0.041666666666666664
135,2013-12-03,3.9166666666666665,,3.9166666666666665
135,2013-12-04,16.375041666666664,,16.375041666666664
135,2013-12-05,8.166666666666666,,8.166666666666666
135,2013-12-06,9.5,,9.5
135,2013-12-07,21.708333333333332,,21.708333333333332
135,2013-12-08,12.833333333333334,,12.833333333333334
135,2013-12-09,0.4583333333333333,,0.4583333333333333
135,2013-12-10,26.958333333333332,,26.958333333333332
135,2013-12-11,6.541666666666667,,6.541666666666667
135,2013-12-12,16.291666666666668,,16.291666666666668
135,2013-12-13,1.875,,1.875
135,2013-12-14,0.041666666666666664,,0.041666666666666664
135,2013-12-15,0.0,,0.0
135,2013-12-16,0.041666666666666664,,0.041666666666666664
135,2013-12-17,0.041666666666666664,,0.041666666666666664
135,2013-12-18,0.0,,0.0
135,2013-12-19,0.5,,0.5
135,2013-12-20,0.375,,0.375
135,2013-12-21,2.375,,2.375
135,2013-12-22,3.8333333333333335,,3.8333333333333335
135,2013-12-23,4.416666666666667,,4.416666666666667
135,2013-12-24,0.4166666666666667,,0.4166666666666667
135,2013-12-25,0.20833333333333334,,0.20833333333333334
135,2013-12-26,0.0,,0.0
135,2013-12-27,0.041666666666666664,,0.041666666666666664
135,2013-12-28,20.833333333333332,,20.833333333333332
135,2013-12-29,6.0,,6.0
135,2013-12-30,6.416666666666667,,6.416666666666667
135,2013-12-31,8.833333333333334,,8.833333333333334
135,2014-01-01,23.083333333333332,,23.083333333333332
135,2014-01-02,0.0,,0.0
135,2014-01-03,0.0,,0.0
135,2014-01-04,0.5416666666666666,,0.5416666666666666
135,2014-01-05,0.4166666666666667,,0.4166666666666667
135,2014-01-06,12.333333333333334,,12.333333333333334
135,2014-01-07,9.875,,9.875
135,2014-01-08,13.291666666666666,,13.291666666666666
135,2014-01-09,34.916666666666664,,34.916666666666664
135,2014-01-10,3.6666666666666665,,3.6666666666666665
135,2014-01-11,3.8333333333333335,,3.8333333333333335
135,2014-01-12,4.875,,4.875
135,2014-01-13,18.791666666666668,,18.791666666666668
135,2014-01-14,11.583333333333334,,11.583333333333334
135,2014-01-15,31.083333333333332,,31.083333333333332
135,2014-01-16,6.5,,6.5
135,2014-01-17,30.208333333333332,,30.208333333333332
135,2014-01-18,17.875,,17.875
135,2014-01-19,3.7083333333333335,,3.7083333333333335
135,2014-01-20,0.7083333333333334,,0.7083333333333334
135,2014-01-21,1.5,,1.5
135,2014-01-22,0.5833333333333334,,0.5833333333333334
135,2014-01-23,0.7083333333333334,,0.7083333333333334
135,2014-01-24,12.166666666666666,,12.166666666666666
135,2014-01-25,6.208333333333333,,6.208333333333333
135,2014-01-26,3.5416666666666665,,3.5416666666666665
135,2014-01-27,22.875,,22.875
135,2014-01-28,20.125,,20.125
135,2014-01-29,15.958333333333334,,15.958333333333334
135,2014-01-30,38.666666666666664,,38.666666666666664
135,2014-01-31,15.458333333333334,,15.458333333333334
135,2014-02-01,8.791666666666666,,8.791666666666666
135,2014-02-02,1.6666666666666667,,1.6666666666666667
135,2014-02-03,0.0,,0.0
135,2014-02-04,0.0,,0.0
135,2014-02-05,0.0,,0.0
135,2014-02-06,0.0,,0.0
135,2014-02-07,0.0,,0.0
135,2014-02-08,0.0,,0.0
135,2014-02-09,0.0,,0.0
135,2014-02-10,0.0,,0.0
135,2014-02-11,0.0,,0.0
135,2014-02-12,0.0,,0.0
135,2014-02-13,0.375,,0.375
135,2014-02-14,0.5833333333333334,,0.5833333333333334
135,2014-02-15,2.2083333333333335,,2.2083333333333335
135,2014-02-16,1.4583333333333333,,1.4583333333333333
135,2014-02-17,5.125,,5.125
135,2014-02-18,5.75,,5.75
135,2014-02-19,32.166666666666664,,32.166666666666664
135,2014-02-20,13.916666666666666,,13.916666666666666
135,2014-02-21,21.333333333333332,,21.333333333333332
135,2014-02-22,57.833333333333336,,57.833333333333336
135,2014-02-23,57.041666666666664,,57.041666666666664
135,2014-02-24,34.5,,34.5
135,2014-02-25,41.416666666666664,,41.416666666666664
135,2014-02-26,46.333333333333336,,46.333333333333336
135,2014-02-27,24.416666666666668,,24.416666666666668
135,2014-02-28,68.54166666666667,,68.54166666666667
135,2014-03-01,33.083333333333336,,33.083333333333336
135,2014-03-02,0.5,,0.5
135,2014-03-03,0.8333333333333334,,0.8333333333333334
135,2014-03-04,0.375,,0.375
135,2014-03-05,0.5416666666666666,,0.5416666666666666
135,2014-03-06,1.875,,1.875
135,2014-03-07,28.625,,28.625
135,2014-03-08,9.583333333333334,,9.583333333333334
135,2014-03-09,54.833333333333336,,54.833333333333336
135,2014-03-10,46.333333333333336,,46.333333333333336
135,2014-03-11,54.333333333333336,,54.333333333333336
135,2014-03-12,0.0,,0.0
135,2014-03-13,0.08333333333333333,,0.08333333333333333
135,2014-03-14,18.416666666666668,,18.416666666666668
135,2014-03-15,28.458333333333332,,28.458333333333332
135,2014-03-16,68.29166666666667,,68.29166666666667
135,2014-03-17,70.875,,70.875
135,2014-03-18,73.45833333333333,,73.45833333333333
135,2014-03-19,19.125,,19.125
135,2014-03-20,8.125,,8.125
135,2014-03-21,65.66666666666667,,65.66666666666667
135,2014-03-22,16.125,,16.125
135,2014-03-23,50.5,,50.5
135,2014-03-24,48.291666666666664,,48.291666666666664
135,2014-03-25,71.83333333333333,,71.83333333333333
135,2014-03-26,58.125,,58.125
135,2014-03-27,36.083333333333336,,36.083333333333336
135,2014-03-28,8.333333333333334,,8.333333333333334
135,2014-03-29,15.958333333333334,,15.958333333333334
135,2014-03-30,5.5,,5.5
135,2014-03-31,73.66666666666667,,73.66666666666667
135,2014-04-01,45.166666666666664,,45.166666666666664
135,2014-04-02,84.125,,84.125
135,2014-04-03,47.416666666666664,,47.416666666666664
135,2014-04-04,12.409083333333333,,12.409083333333333
135,2014-04-05,33.575916666666664,,33.575916666666664
135,2014-04-06,82.83333333333333,,82.83333333333333
135,2014-04-07,26.958333333333332,,26.958333333333332
135,2014-04-08,28.333333333333332,,28.333333333333332
135,2014-04-09,83.95833333333333,,83.95833333333333
135,2014-04-10,71.125,,71.125
135,2014-04-11,66.66666666666667,,66.66666666666667
135,2014-04-12,69.70833333333333,,69.70833333333333
135,2014-04-13,60.416666666666664,,60.416666666666664
135,2014-04-14,28.0,,28.0
135,2014-04-15,2.2083333333333335,,2.2083333333333335
135,2014-04-16,56.708333333333336,,56.708333333333336
135,2014-04-17,85.33333333333333,,85.33333333333333
135,2014-04-18,58.791666666666664,,58.791666666666664
135,2014-04-19,90.04166666666667,,90.04166666666667
135,2014-04-20,85.0,,85.0
135,2014-04-21,65.29166666666667,,65.29166666666667
135,2014-04-22,28.541666666666668,,28.541666666666668
135,2014-04-23,51.25,,51.25
135,2014-04-24,91.79166666666667,,91.79166666666667
135,2014-04-25,47.208333333333336,,47.208333333333336
135,2014-04-26,22.541666666666668,,22.541666666666668
135,2014-04-27,78.125,,78.125
135,2014-04-28,75.66666666666667,,75.66666666666667
135,2014-04-29,21.541666666666668,,21.541666666666668
135,2014-04-30,18.708333333333332,,18.708333333333332
135,2014-05-01,71.04166666666667,,71.04166666666667
135,2014-05-02,47.916666666666664,,47.916666666666664
135,2014-05-03,47.333333333333336,,47.333333333333336
135,2014-05-04,70.91666666666667,,70.91666666666667
135,2014-05-05,70.16666666666667,,70.16666666666667
135,2014-05-06,92.25,,92.25
135,2014-05-07,70.875,,70.875
135,2014-05-08,68.54166666666667,,68.54166666666667
135,2014-05-09,60.041666666666664,,60.041666666666664
135,2014-05-10,71.95833333333333,,71.95833333333333
135,2014-05-11,90.375,,90.375
135,2014-05-12,62.333333333333336,,62.333333333333336
135,2014-05-13,70.95833333333333,,70.95833333333333
135,2014-05-14,57.666666666666664,,57.666666666666664
135,2014-05-15,24.458333333333332,,24.458333333333332
135,2014-05-16,22.583333333333332,,22.583333333333332
135,2014-05-17,63.416666666666664,,63.416666666666664
135,2014-05-18,73.25,,73.25
135,2014-05-19,71.91666666666667,,71.91666666666667
135,2014-05-20,48.125,,48.125
135,2014-05-21,48.5,,48.5
135,2014-05-22,50.958333333333336,,50.958333333333336
135,2014-05-23,38.083333333333336,,38.083333333333336
135,2014-05-24,92.25,,92.25
135,2014-05-25,89.95833333333333,,89.95833333333333
135,2014-05-26,84.66666666666667,,84.66666666666667
135,2014-05-27,67.79166666666667,,67.79166666666667
135,2014-05-28,60.0,,60.0
135,2014-05-29,53.208333333333336,,53.208333333333336
135,2014-05-30,78.58333333333333,,78.58333333333333
135,2014-05-31,93.625,,93.625
135,2014-06-01,89.375,,89.375
135,2014-06-02,73.45833333333333,,73.45833333333333
135,2014-06-03,58.708333333333336,,58.708333333333336
135,2014-06-04,63.083333333333336,,63.083333333333336
135,2014-06-05,57.375,,57.375
135,2014-06-06,87.29166666666667,,87.29166666666667
135,2014-06-07,90.45833333333333,,90.45833333333333
135,2014-06-08,32.916666666666664,,32.916666666666664
135,2014-06-09,76.45833333333333,,76.45833333333333
135,2014-06-10,68.625,,68.625
135,2014-06-11,48.916666666666664,,48.916666666666664
135,2014-06-12,40.083333333333336,,40.083333333333336
135,2014-06-13,49.166666666666664,,49.166666666666664
135,2014-06-14,54.75,,54.75
135,2014-06-15,92.0,,92.0
135,2014-06-16,61.708333333333336,,61.708333333333336
135,2014-06-17,70.375,,70.375
135,2014-06-18,48.75,,48.75
135,2014-06-19,84.29395833333334,,84.29395833333334
135,2014-06-20,76.83333333333333,,76.83333333333333
135,2014-06-21,86.54166666666667,,86.54166666666667
135,2014-06-22,88.20833333333333,,88.20833333333333
135,2014-06-23,65.95833333333333,,65.95833333333333
135,2014-06-24,62.333333333333336,,62.333333333333336
135,2014-06-25,40.0,,40.0
135,2014-06-26,79.33333333333333,,79.33333333333333
135,2014-06-27,82.95833333333333,,82.95833333333333
135,2014-06-28,78.20833333333333,,78.20833333333333
135,2014-06-29,66.875,,66.875
135,2014-06-30,83.08333333333333,,83.08333333333333
135,2014-07-01,79.16666666666667,,79.16666666666667
135,2014-07-02,72.20833333333333,,72.20833333333333
135,2014-07-03,34.958333333333336,,34.958333333333336
135,2014-07-04,82.66666666666667,,82.66666666666667
135,2014-07-05,92.54166666666667,,92.54166666666667
135,2014-07-06,87.66666666666667,,87.66666666666667
135,2014-07-07,41.166666666666664,,41.166666666666664
135,2014-07-08,39.416666666666664,,39.416666666666664
135,2014-07-09,65.04166666666667,,65.04166666666667
135,2014-07-10,90.25,,90.25
135,2014-07-11,88.41666666666667,,88.41666666666667
135,2014-07-12,83.125,,83.125
135,2014-07-13,36.5,,36.5
135,2014-07-14,54.833333333333336,,54.833333333333336
135,2014-07-15,76.16666666666667,,76.16666666666667
135,2014-07-16,67.58333333333333,,67.58333333333333
135,2014-07-17,79.08333333333333,,79.08333333333333
135,2014-07-18,79.79166666666667,,79.79166666666667
135,2014-07-19,23.333333333333332,,23.333333333333332
135,2014-07-20,59.791666666666664,,59.791666666666664
135,2014-07-21,81.16666666666667,,81.16666666666667
135,2014-07-22,84.29166666666667,,84.29166666666667
135,2014-07-23,40.833333333333336,,40.833333333333336
135,2014-07-24,90.66666666666667,,90.66666666666667
135,2014-07-25,81.04166666666667,,81.04166666666667
135,2014-07-26,63.791666666666664,,63.791666666666664
135,2014-07-27,70.625,,70.625
135,2014-07-28,25.5,,25.5
135,2014-07-29,51.875,,51.875
135,2014-07-30,45.625,,45.625
135,2014-07-31,71.70833333333333,,71.70833333333333
135,2014-08-01,80.04166666666667,,80.04166666666667
135,2014-08-02,65.125,,65.125
135,2014-08-03,30.916666666666668,,30.916666666666668
135,2014-08-04,74.0,,74.0
135,2014-08-05,35.791666666666664,,35.791666666666664
135,2014-08-06,70.375,,70.375
135,2014-08-07,73.125,,73.125
135,2014-08-08,75.54166666666667,,75.54166666666667
135,2014-08-09,80.70833333333333,,80.70833333333333
135,2014-08-10,79.875,,79.875
135,2014-08-11,62.125,,62.125
135,2014-08-12,39.583333333333336,,39.583333333333336
135,2014-08-13,57.375,,57.375
135,2014-08-14,50.708333333333336,,50.708333333333336
135,2014-08-15,49.916666666666664,,49.916666666666664
135,2014-08-16,26.0,,26.0
135,2014-08-17,66.70833333333333,,66.70833333333333
135,2014-08-18,76.58333333333333,,76.58333333333333
135,2014-08-19,75.29166666666667,,75.29166666666667
135,2014-08-20,44.416666666666664,,44.416666666666664
135,2014-08-21,55.875,,55.875
135,2014-08-22,55.958333333333336,,55.958333333333336
135,2014-08-23,45.125,,45.125
135,2014-08-24,56.458333333333336,,56.458333333333336
135,2014-08-25,73.08333333333333,,73.08333333333333
135,2014-08-26,73.625,,73.625
135,2014-08-27,65.66666666666667,,65.66666666666667
135,2014-08-28,75.75,,75.75
135,2014-08-29,67.16666666666667,,67.16666666666667
135,2014-08-30,60.25,,60.25
135,2014-08-31,25.458333333333332,,25.458333333333332
135,2014-09-01,61.458333333333336,,61.458333333333336
135,2014-09-02,23.333333333333332,,23.333333333333332
135,2014-09-03,66.70833333333333,,66.70833333333333
135,2014-09-04,73.08333333333333,,73.08333333333333
135,2014-09-05,55.041666666666664,,55.041666666666664
135,2014-09-06,26.833333333333332,,26.833333333333332
135,2014-09-07,76.91666666666667,,76.91666666666667
135,2014-09-08,70.375,,70.375
135,2014-09-09,48.208333333333336,,48.208333333333336
135,2014-09-10,38.625,,38.625
135,2014-09-11,23.166666666666668,,23.166666666666668
135,2014-09-12,28.791666666666668,,28.791666666666668
135,2014-09-13,26.375,,26.375
135,2014-09-14,48.833333333333336,,48.833333333333336
135,2014-09-15,37.791666666666664,,37.791666666666664
135,2014-09-16,63.541666666666664,,63.541666666666664
135,2014-09-17,65.79166666666667,,65.79166666666667
135,2014-09-18,25.541666666666668,,25.541666666666668
135,2014-09-19,71.41666666666667,,71.41666666666667
135,2014-09-20,64.0,,64.0
135,2014-09-21,52.541666666666664,,52.541666666666664
135,2014-09-22,24.375,,24.375
135,2014-09-23,68.75,,68.75
135,2014-09-24,66.125,,66.125
135,2014-09-25,48.833333333333336,,48.833333333333336
135,2014-09-26,65.58333333333333,,65.58333333333333
135,2014-09-27,64.66666666666667,,64.66666666666667
135,2014-09-28,57.208333333333336,,57.208333333333336
135,2014-09-29,60.916666666666664,,60.916666666666664
135,2014-09-30,37.083333333333336,,37.083333333333336
135,2014-10-01,22.541666666666668,,22.541666666666668
135,2014-10-02,59.958333333333336,,59.958333333333336
135,2014-10-03,44.458333333333336,,44.458333333333336
135,2014-10-04,26.958333333333332,,26.958333333333332
135,2014-10-05,22.708333333333332,,22.708333333333332
135,2014-10-06,43.208333333333336,,43.208333333333336
135,2014-10-07,37.25,,37.25
135,2014-10-08,36.863125000000004,,36.863125000000004
135,2014-10-09,59.416666666666664,,59.416666666666664
135,2014-10-10,46.875,,46.875
135,2014-10-11,50.5,,50.5
135,2014-10-12,59.958333333333336,,59.958333333333336
135,2014-10-13,19.708333333333332,,19.708333333333332
135,2014-10-14,35.166666666666664,,35.166666666666664
135,2014-10-15,9.041666666666666,,9.041666666666666
135,2014-10-16,35.958333333333336,,35.958333333333336
135,2014-10-17,15.708333333333334,,15.708333333333334
135,2014-10-18,11.75,,11.75
135,2014-10-19,36.19441666666667,,36.19441666666667
135,2014-10-20,18.180541666666667,,18.180541666666667
135,2014-10-21,7.125,,7.125
135,2014-10-22,15.25,,15.25
135,2014-10-23,55.791666666666664,,55.791666666666664
135,2014-10-24,46.875,,46.875
135,2014-10-25,30.416666666666668,,30.416666666666668
135,2014-10-26,10.5,,10.5
135,2014-10-27,46.708333333333336,,46.708333333333336
135,2014-10-28,26.291666666666668,,26.291666666666668
135,2014-10-29,17.125,,17.125
135,2014-10-30,26.166666666666668,,26.166666666666668
135,2014-10-31,13.083333333333334,,13.083333333333334
135,2014-11-01,7.25,,7.25
135,2014-11-02,53.458333333333336,,53.458333333333336
135,2014-11-03,34.916666666666664,,34.916666666666664
135,2014-11-04,15.583333333333334,,15.583333333333334
135,2014-11-05,40.0,,40.0
135,2014-11-06,15.125,,15.125
135,2014-11-07,16.416666666666668,,16.416666666666668
135,2014-11-08,12.333333333333334,,12.333333333333334
135,2014-11-09,15.541666666666666,,15.541666666666666
135,2014-11-10,33.666666666666664,,33.666666666666664
135,2014-11-11,42.208333333333336,,42.208333333333336
135,2014-11-12,18.25,,18.25
135,2014-11-13,11.208333333333334,,11.208333333333334
135,2014-11-14,23.041666666666668,,23.041666666666668
135,2014-11-15,17.916666666666668,,17.916666666666668
135,2014-11-16,15.125,,15.125
135,2014-11-17,0.125,,0.125
135,2014-11-18,6.041666666666667,,6.041666666666667
135,2014-11-19,0.125,,0.125
135,2014-11-20,2.125,,2.125
135,2014-11-21,2.218375,,2.218375
135,2014-11-22,2.6566666666666667,,2.6566666666666667
135,2014-11-23,10.992416666666665,,10.992416666666665
135,2014-11-24,8.397708333333332,,8.397708333333332
135,2014-11-25,1.0833333333333333,,1.0833333333333333
135,2014-11-26,4.0,,4.0
135,2014-11-27,17.0,,17.0
135,2014-11-28,0.16666666666666666,,0.16666666666666666
135,2014-11-29,0.25,,0.25
135,2014-11-30,7.166666666666667,,7.166666666666667
135,2014-12-01,16.0,,16.0
135,2014-12-02,22.333333333333332,,22.333333333333332
135,2014-12-03,4.791666666666667,,4.791666666666667
135,2014-12-04,31.666666666666668,,31.666666666666668
135,2014-12-05,10.083333333333334,,10.083333333333334
135,2014-12-06,11.75,,11.75
135,2014-12-07,36.625,,36.625
135,2014-12-08,15.25,,15.25
135,2014-12-09,21.541666666666668,,21.541666666666668
135,2014-12-10,3.7916666666666665,,3.7916666666666665
135,2014-12-11,0.0,,0.0
135,2014-12-12,0.0,,0.0
135,2014-12-13,0.0,,0.0
135,2014-12-14,0.0,,0.0
135,2014-12-15,4.833333333333333,,4.833333333333333
135,2014-12-16,2.7916666666666665,,2.7916666666666665
135,2014-12-17,6.333333333333333,,6.333333333333333
135,2014-12-18,3.5416666666666665,,3.5416666666666665
135,2014-12-19,8.625,,8.625
135,2014-12-20,22.166666666666668,,22.166666666666668
135,2014-12-21,26.666666666666668,,26.666666666666668
135,2014-12-22,28.208333333333332,,28.208333333333332
135,2014-12-23,8.0,,8.0
135,2014-12-24,7.541666666666667,,7.541666666666667
135,2014-12-25,10.791666666666666,,10.791666666666666
135,2014-12-26,29.25,,29.25
135,2014-12-27,18.875,,18.875
135,2014-12-28,11.5,,11.5
135,2014-12-29,11.25,,11.25
135,2014-12-30,3.1666666666666665,,3.1666666666666665
135,2014-12-31,24.625,,24.625
135,2015-01-01,0.9166666666666666,,0.9166666666666666
135,2015-01-02,26.708333333333332,,26.708333333333332
135,2015-01-03,3.4166666666666665,,3.4166666666666665
135,2015-01-04,3.0416666666666665,,3.0416666666666665
135,2015-01-05,35.0,,35.0
135,2015-01-06,7.75,,7.75
135,2015-01-07,1.5,,1.5
135,2015-01-08,9.333333333333334,,9.333333333333334
135,2015-01-09,1.5833333333333333,,1.5833333333333333
135,2015-01-10,5.041666666666667,,5.041666666666667
135,2015-01-11,11.333333333333334,,11.333333333333334
135,2015-01-12,0.0,,0.0
135,2015-01-13,0.3333333333333333,,0.3333333333333333
135,2015-01-14,0.375,,0.375
135,2015-01-15,0.9166666666666666,,0.9166666666666666
135,2015-01-16,11.333333333333334,,11.333333333333334
135,2015-01-17,15.5,,15.5
135,2015-01-18,8.708333333333334,,8.708333333333334
135,2015-01-19,9.875,,9.875
135,2015-01-20,22.625,,22.625
135,2015-01-21,24.208333333333332,,24.208333333333332
135,2015-01-22,24.375,,24.375
135,2015-01-23,13.666666666666666,,13.666666666666666
135,2015-01-24,5.208333333333333,,5.208333333333333
135,2015-01-25,25.958333333333332,,25.958333333333332
135,2015-01-26,12.416666666666666,,12.416666666666666
135,2015-01-27,1.2916666666666667,,1.2916666666666667
135,2015-01-28,9.0,,9.0
135,2015-01-29,3.875,,3.875
135,2015-01-30,0.16666666666666666,,0.16666666666666666
135,2015-01-31,0.3333333333333333,,0.3333333333333333
135,2015-02-01,0.041666666666666664,,0.041666666666666664
135,2015-02-02,0.0,,0.0
135,2015-02-03,0.0,,0.0
135,2015-02-04,0.0,,0.0
135,2015-02-05,0.0,,0.0
135,2015-02-06,0.0,,0.0
135,2015-02-07,0.0,,0.0
135,2015-02-08,0.0,,0.0
135,2015-02-09,0.0,,0.0
135,2015-02-10,0.0,,0.0
135,2015-02-11,0.0,,0.0
135,2015-02-12,0.0,,0.0
135,2015-02-13,0.0,,0.0
135,2015-02-14,0.0,,0.0
135,2015-02-15,0.0,,0.0
135,2015-02-16,0.0,,0.0
135,2015-02-17,0.0,,0.0
135,2015-02-18,0.0,,0.0
135,2015-02-19,0.0,,0.0
135,2015-02-20,0.0,,0.0
135,2015-02-21,0.0,,0.0
135,2015-02-22,0.0,,0.0
135,2015-02-23,0.0,,0.0
135,2015-02-24,0.0,,0.0
135,2015-02-25,0.0,,0.0